sat.trackr.live / text

‹ back to catalog

SITRO-AIS 10 (BURDAEV)

NORAD 57199 · 2023-091AK

PAYLOAD ACTIVE UNKNOWN

§ Identity

Operator
Country
CIS
Launch date
2023-06-27
Launch site
VOSTO
Launch vehicle
Mass (kg)
RCS (m²)

Purposes: tech_demo

External: N2YO · Heavens-Above · Gunter

§ Orbital elements

Epoch: 2026-09-19T21:40:57.414720Z

Period
93.39 min
Inclination
97.4990°
Eccentricity
0.0007170
Mean motion
15.41934770 rev/d
Perigee alt
435.5 km
Apogee alt
445.3 km
Semi-major
6,818.5 km
B*
3.7780e-4
RAAN
335.8954°
Arg perigee
94.1467°
Mean anomaly
266.0599°
Rev number
17,934

§ Raw data

SITRO-AIS 10 (BURDAEV)1 57199U 23091AK  26262.90344230  .00016007  00000+0  37780-3 0  99902 57199  97.4990 335.8954 0007170  94.1467 266.0599 15.41934770179346

JSON: /api/v1/satellites/57199 · /tle

For live sub-satellite position, see the globe view (requires WebGL).

§ Visibility from observer

Set your observer location to see the next 7 days of passes ≥ 10°. The values pass through the URL so the page stays shareable.

No JS? Fill the form by hand. The geolocation button needs JavaScript.

§ Radio — SatNOGS DB

ModeDescriptionDownlinkUplink
GMSK USP Mode U - GMSK USP 2K4 TLM 401.290 MHz

1 transmitter · refreshed weekly from db.satnogs.org